Preview of NWS' New Version of Forecast
This preview is not operational and should not be used for support decisions.

Regional Weather Roundup (RWR)

Issued by National Weather Service (NWS)

                            
000
ASUS43 KDTX 220210
RWRMI 
MICHIGAN HOURLY REGIONAL WEATHER ROUNDUP
NATIONAL WEATHER SERVICE DETROIT/PONTIAC MI
1000 PM EDT SUN APR 21 2019

NOTE: "FAIR" INDICATES FEW OR NO CLOUDS BELOW 12,000 FEET WITH NO
SIGNIFICANT WEATHER AND/OR OBSTRUCTION TO VISIBILITY.

MIZ047>049-052>055-059>063-066>070-074>076-081>083-220300-
SOUTHEAST LOWER MICHIGAN
  
CITY           SKY/WX    TMP DP  RH WIND       PRES   REMARKS
ADRIAN         FAIR      57  44  62 SW9       30.14R                  
ALMA           FAIR      59  36  41 CALM      30.10R                  
ANN ARBOR      FAIR      56  47  71 SE5       30.13R                  
BAD AXE        FAIR      51  42  71 SE3       30.13R                  
CARO           FAIR      54  36  49 E5        30.12R                  
DETROIT CITY   FAIR      53  38  56 SE5       30.15R                  
DETROIT        FAIR      55  41  59 SE6       30.14R                  
FLINT          FAIR      54  42  64 SE8       30.12R                  
GROSSE ILE     FAIR      52  43  72 SE8       30.15R                  
HILLSDALE      FAIR      56  42  60 S7        30.13R                  
HOWELL         FAIR      57  39  52 SE6       30.12R                  

CITY           SKY/WX    TMP DP  RH WIND       PRES   REMARKS
JACKSON        FAIR      57  44  62 S10       30.12R                  
LAMBERTVILLE   FAIR      58  43  57 S3        30.14R                  
LANSING        FAIR      62  37  39 S7        30.11R                  
LAPEER         FAIR      55  42  62 SE5       30.14R                  
MASON          FAIR      58  45  61 SE8       30.11R                  
MONROE         FAIR      55  46  71 SE3       30.14R                  
MT. CLEMENS    PTCLDY    49  46  89 SE7       30.14R                  
PONTIAC        FAIR      54  42  64 SE5       30.13R                  
PORT HOPE        N/A     50  34  54 SE9       30.12R                  
TRI CITIES     FAIR      58  40  51 SE8       30.11R                  
MIDLAND        MOCLDY    63  36  36 SE5       30.09R                  
TROY           FAIR      55  34  45 SE3       30.16R                  
SAGINAW HB     FAIR      59  39  47 SE7       30.11R                  
$$
MIZ043>046-050>051-056>058-064>065-071>073-077>080-220300-
SOUTHWEST LOWER MICHIGAN
  
CITY           SKY/WX    TMP DP  RH WIND       PRES   REMARKS
BATTLE CREEK   FAIR      59  37  44 S9        30.11R                  
BENTON HARBOR  FAIR      62  34  35 SE6       30.07R                  
BIG RAPIDS     FAIR      57  37  47 CALM      30.08R                  
COLDWATER      FAIR      58  43  58 S9        30.12R                  
FREMONT        FAIR      60  20  21 S3        30.06R                  
HOLLAND        FAIR      62  36  37 S6        30.07R                  
GRAND RAPIDS   FAIR      61  37  41 S8        30.08R                  
IONIA          FAIR      60  35  38 S8        30.09R                  
KALAMAZOO      FAIR      61  38  42 S8        30.10R                  
LUDINGTON      FAIR      62  27  25 SE5       30.03S                  
MARSHALL       FAIR      59  41  51 S7        30.11R                  
MOUNT PLEASANT FAIR      62  35  37 SE3       30.09R                  
MUSKEGON       MOCLDY    58  30  34 SE5       30.06R                  
SOUTH HAVEN    FAIR      65  29  26 S3        30.07R                  
$$
MIZ016>042-220300-
NORTHERN LOWER MICHIGAN
  
CITY           SKY/WX    TMP DP  RH WIND       PRES   REMARKS
ALPENA         FAIR      49  21  33 SE6       30.12R                  
BEAVER ISLAND  CLOUDY    50  23  34 E10       30.08R                  
BELLAIRE       MOCLDY    52  39  59 CALM      30.07R                  
CADILLAC       FAIR      57  36  45 NW3       30.07R                  
CHARLEVOIX     FAIR      46  34  64 CALM      30.10R                  
FRANKFORT      FAIR      56  29  35 E5        30.06R                  
GAYLORD        FAIR      55  32  41 NE7       30.07R                  
HARBOR SPRINGS MOCLDY    53  26  34 E9        30.08R                  
HOUGHTON LAKE  FAIR      59  33  37 S7        30.08R                  
MANISTEE       FAIR      64  32  30 SE6       30.03R                  
OSCODA         CLOUDY    51  25  35 SE6       30.12R                  
PELLSTON       MOCLDY    49  28  44 N3        30.10R                  
ROGERS CITY    FAIR      46  32  58 E6        30.13R                  
TRAVERSE CITY  MOCLDY    50  33  52 CALM      30.08R                  
$$
MIZ007>008-015-220300-
EASTERN UPPER MICHIGAN
  
CITY           SKY/WX    TMP DP  RH WIND       PRES   REMARKS
KINROSS        CLOUDY    48  31  51 E10       30.12R                  
MACKINAC ISLAN CLOUDY    43  24  47 E14G20    30.11R                  
NEWBERRY       CLOUDY    42  40  91 NE6       30.11R                  
S. S. MARIE    CLOUDY    49  36  61 NE5       30.13R                  
MUNISING         N/A     34  33  96 CALM      30.10R                  
$$
MIZ004>006-011>014-085-220300-
CENTRAL UPPER MICHIGAN
  
CITY           SKY/WX    TMP DP  RH WIND       PRES   REMARKS
MANISTIQUE     CLOUDY    47  38  73 N7        30.08R                  
ESCANABA       FAIR      44  32  62 NE9G16    30.07R                  
MENOMINEE      FAIR      48  32  53 NE14      30.05R                  
SAWYER-GWINN   CLOUDY    37  34  87 NE13      30.09R WCI  29          
$$
MIZ001>003-009>011-084-220300-
WESTERN UPPER MICHIGAN
  
CITY           SKY/WX    TMP DP  RH WIND       PRES   REMARKS
IRON MOUNTAIN  FAIR      45  29  53 NE3       30.05R                  
HOUGHTON       LGT RAIN  42  39  89 E12       30.12S                  
COPPER HARBOR    N/A     39  38  96 CALM      30.15R                  
IRONWOOD       RAIN      40  37  89 E7        30.09R                  
$$

ABBREVIATIONS USED IN REMARKS
   TC - TEMPERATURE IN CELSIUS
  WCI - WIND CHILL INDEX
   HX - HEAT INDEX
  VSB - VISIBILITY